Location: Caltech
(34.1382°N, 118.1253°W)
Time: 14:55:52
(UTC-07:00)

CZ-4B DEB - Visible Passes

Search period start: 07 July 2015 00:00
Search period end: 17 July 2015 00:00
Orbit: 843 x 862 km, 98.9° (Epoch: 06 July)

Date Brightness Start Highest point End Pass type
(mag) Time Alt. Az. Time Alt. Az. Time Alt. Az.
07 Jul 5.4 03:49:02 10° NNE 03:54:09 39° E 03:59:12 10° SSE visible
08 Jul 5.8 03:38:05 10° NE 03:42:52 30° E 03:47:42 10° SSE visible
09 Jul 6.1 03:27:15 10° NE 03:31:32 24° E 03:35:58 10° SSE visible
09 Jul 4.9 05:07:18 10° N 05:12:25 38° WNW 05:17:26 10° SW visible
10 Jul 6.4 03:16:35 10° NE 03:20:12 18° E 03:24:01 10° SE visible
10 Jul 4.6 04:55:56 10° N 05:01:15 48° WNW 05:06:30 10° SW visible
11 Jul 6.6 03:06:12 10° ENE 03:08:49 14° E 03:11:46 10° ESE visible
11 Jul 4.3 04:44:36 10° N 04:50:05 62° WNW 04:55:29 10° SSW visible
12 Jul 6.9 02:56:55 10° E 02:57:25 10° E 02:58:24 10° E visible
12 Jul 4.2 04:33:20 10° N 04:38:53 79° WNW 04:44:14 11° SSW visible
13 Jul 4.3 04:22:07 10° NNE 04:27:41 82° ESE 04:32:49 12° S visible
14 Jul 4.6 04:10:58 10° NNE 04:16:27 64° E 04:21:24 13° S visible
15 Jul 5.0 03:59:52 10° NNE 04:05:12 49° E 04:10:00 13° S visible
16 Jul 5.4 03:48:50 10° NNE 03:53:56 38° E 03:58:35 12° SSE visible
